Sauk Centre, MN

2:56 PM CST on December 11, 2019 (GMT -0600)
Sauk Centre

Weather History for KD39 - September, 2019

Change the Weather History Date:

Friday, September 6, 2019

  Actual Average (KGHW) Record (KGHW)
Temperature  
Mean Temperature 64 °F -  
Max Temperature 76 °F 76 °F 93 °F (2003)
Min Temperature 52 °F 50 °F 31 °F (1956)
Growing Degree Days 14 (Base 50)    
Moisture  
Dew Point 56 °F    
Average Humidity 76    
Maximum Humidity 97    
Minimum Humidity 56    
Precipitation  
Precipitation 0.00 in - - ()
Sea Level Pressure  
Sea Level Pressure 30.11 in    
Wind  
Wind Speed 9 mph ()    
Max Wind Speed 18 mph    
Max Gust Speed 23 mph    
Visibility 10.0 miles    
Events      
Averages and records for this station are not official NWS values.
T = Trace of Precipitation, MM = Missing Value Source: Averaged Metar Reports

Daily Weather History Graph

Daily Weather History Graph

Search for Another Location

Airport or City:

Astronomy

Sep. 06, 2019 Rise Set
Actual Time 6:46 AM CDT 7:48 PM CDT
Civil Twilight 6:16 AM CDT 8:18 PM CDT
Nautical Twilight 5:39 AM CDT 8:55 PM CDT
Astronomical Twilight 5:01 AM CDT 9:33 PM CDT
Moon 3:19 PM CDT (9/6) No Moon Set
Length of Visible Light 14h 02m
Length of Day
13h 01m
First Quarter, 56% of the Moon is Illuminated
Sep 6
First Quarter
Sep 13
Full
Sep 21
Last Quarter
Sep 28
New
Oct 5
First Quarter

Hourly Weather History & Observations

Time (CDT) Temp. Dew Point Humidity Pressure Visibility Wind Dir Wind Speed Gust Speed Precip Events Conditions
12:17 AM 62.6 °F 58.1 °F 85% 30.03 in 10.0 mi NNW 12.7 mph - N/A   Overcast
12:37 AM 62.4 °F 56.8 °F 82% 30.04 in 10.0 mi North 17.3 mph 20.7 mph N/A   Overcast
12:56 AM 62.1 °F 55.4 °F 79% 30.04 in 10.0 mi NNW 18.4 mph - N/A   Overcast
1:15 AM 61.7 °F 55.4 °F 80% 30.04 in 10.0 mi NNW 13.8 mph 23.0 mph N/A   Overcast
1:16 AM 61.7 °F 55.4 °F 80% 30.05 in 10.0 mi NNW 16.1 mph 23.0 mph N/A   Overcast
1:35 AM 61.7 °F 55.4 °F 80% 30.05 in 10.0 mi NNW 12.7 mph 19.6 mph N/A   Overcast
1:36 AM 61.7 °F 55.4 °F 80% 30.05 in 10.0 mi NNW 11.5 mph 19.6 mph N/A   Overcast
1:55 AM 60.8 °F 55.2 °F 82% 30.05 in 10.0 mi North 10.4 mph 19.6 mph N/A   Overcast
1:59 AM 60.8 °F 55.0 °F 81% 30.05 in 10.0 mi North 16.1 mph 19.6 mph N/A   Mostly Cloudy
2:18 AM 60.1 °F 55.0 °F 83% 30.06 in 10.0 mi NNW 10.4 mph - N/A   Scattered Clouds
2:36 AM 59.4 °F 54.9 °F 85% 30.06 in 10.0 mi NNW 10.4 mph 16.1 mph N/A   Clear
2:56 AM 58.8 °F 54.7 °F 86% 30.07 in 10.0 mi NNW 9.2 mph - N/A   Clear
3:15 AM 58.3 °F 54.5 °F 87% 30.07 in 10.0 mi NNW 11.5 mph 17.3 mph N/A   Clear
3:16 AM 58.3 °F 54.5 °F 87% 30.07 in 10.0 mi NNW 11.5 mph 17.3 mph N/A   Clear
3:35 AM 58.1 °F 54.5 °F 88% 30.08 in 10.0 mi NNW 10.4 mph - N/A   Clear
3:39 AM 58.1 °F 54.5 °F 88% 30.08 in 10.0 mi NNW 8.1 mph - N/A   Clear
3:57 AM 57.2 °F 54.5 °F 91% 30.08 in 10.0 mi NW 6.9 mph - N/A   Clear
4:15 AM 56.7 °F 54.1 °F 91% 30.08 in 10.0 mi NNW 5.8 mph - N/A   Clear
4:36 AM 56.3 °F 54.1 °F 92% 30.09 in 10.0 mi NNW 6.9 mph - N/A   Clear
4:55 AM 55.8 °F 54.0 °F 94% 30.09 in 10.0 mi WNW 5.8 mph - N/A   Clear
4:56 AM 55.6 °F 53.8 °F 94% 30.09 in 10.0 mi WNW 4.6 mph - N/A   Clear
5:15 AM 55.2 °F 53.8 °F 95% 30.09 in 10.0 mi NNW 6.9 mph - N/A   Clear
5:16 AM 55.2 °F 53.8 °F 95% 30.09 in 10.0 mi NNW 6.9 mph - N/A   Clear
5:35 AM 55.4 °F 53.8 °F 94% 30.10 in 10.0 mi NW 4.6 mph - N/A   Clear
5:59 AM 54.0 °F 52.9 °F 96% 30.10 in 10.0 mi WNW 3.5 mph - N/A   Clear
6:16 AM 53.8 °F 52.9 °F 97% 30.11 in 10.0 mi NW 6.9 mph - N/A   Clear
6:36 AM 54.9 °F 53.6 °F 96% 30.12 in 10.0 mi NW 5.8 mph - N/A   Clear
6:55 AM 54.5 °F 53.1 °F 95% 30.13 in 10.0 mi NNW 4.6 mph - N/A   Clear
6:56 AM 54.5 °F 53.1 °F 95% 30.13 in 10.0 mi NNW 4.6 mph - N/A   Clear
7:15 AM 54.3 °F 52.9 °F 95% 30.13 in 10.0 mi Calm Calm - N/A   Clear
7:19 AM 54.3 °F 52.9 °F 95% 30.13 in 10.0 mi Calm Calm - N/A   Clear
7:37 AM 55.2 °F 53.6 °F 94% 30.13 in 10.0 mi NNW 3.5 mph - N/A   Clear
7:56 AM 56.3 °F 54.3 °F 93% 30.14 in 10.0 mi NNW 4.6 mph - N/A   Clear
8:15 AM 58.1 °F 54.0 °F 86% 30.14 in 10.0 mi NW 5.8 mph - N/A   Clear
8:16 AM 58.3 °F 54.1 °F 86% 30.14 in 10.0 mi NW 5.8 mph - N/A   Clear
8:35 AM 59.7 °F 54.0 °F 81% 30.16 in 10.0 mi NW 5.8 mph - N/A   Clear
8:36 AM 59.7 °F 54.0 °F 81% 30.16 in 10.0 mi NW 5.8 mph - N/A   Clear
8:55 AM 60.8 °F 54.3 °F 79% 30.15 in 10.0 mi NNW 4.6 mph - N/A   Clear
9:17 AM 62.6 °F 54.1 °F 74% 30.16 in 10.0 mi NNW 5.8 mph - N/A   Clear
9:35 AM 63.5 °F 53.8 °F 71% 30.16 in 10.0 mi NW 5.8 mph - N/A   Clear
9:55 AM 64.2 °F 54.3 °F 70% 30.16 in 10.0 mi NW 5.8 mph - N/A   Clear
9:56 AM 64.2 °F 54.3 °F 70% 30.16 in 10.0 mi NW 5.8 mph - N/A   Clear
10:16 AM 65.3 °F 55.8 °F 71% 30.16 in 10.0 mi NW 8.1 mph - N/A   Clear
10:38 AM 66.0 °F 55.9 °F 70% 30.16 in 10.0 mi NW 8.1 mph - N/A   Clear
10:57 AM 67.3 °F 57.9 °F 72% 30.17 in 10.0 mi West 6.9 mph - N/A   Clear
11:16 AM 68.0 °F 57.6 °F 69% 30.17 in 10.0 mi WNW 8.1 mph - N/A   Clear
11:35 AM 68.9 °F 57.2 °F 66% 30.16 in 10.0 mi WNW 8.1 mph - N/A   Clear
11:36 AM 68.9 °F 57.2 °F 66% 30.16 in 10.0 mi WNW 10.4 mph - N/A   Clear
11:55 AM 69.1 °F 57.2 °F 66% 30.16 in 10.0 mi West 9.2 mph - N/A   Clear
12:18 PM 69.8 °F 57.4 °F 65% 30.15 in 10.0 mi NNW 9.2 mph - N/A   Clear
12:37 PM 70.7 °F 57.9 °F 64% 30.14 in 10.0 mi WNW 11.5 mph - N/A   Clear
12:55 PM 71.8 °F 57.9 °F 62% 30.14 in 10.0 mi West 9.2 mph - N/A   Clear
1:15 PM 72.7 °F 58.3 °F 60% 30.14 in 10.0 mi NW 10.4 mph - N/A   Clear
1:16 PM 72.7 °F 58.3 °F 60% 30.14 in 10.0 mi NW 9.2 mph - N/A   Clear
1:35 PM 73.4 °F 58.3 °F 59% 30.13 in 10.0 mi WNW 9.2 mph - N/A   Clear
1:36 PM 73.4 °F 58.1 °F 59% 30.13 in 10.0 mi WNW 8.1 mph - N/A   Clear
1:58 PM 74.3 °F 60.1 °F 61% 30.12 in 10.0 mi West 10.4 mph 16.1 mph N/A   Scattered Clouds
2:17 PM 75.0 °F 59.5 °F 58% 30.12 in 10.0 mi WNW 10.4 mph - N/A   Scattered Clouds
2:36 PM 74.1 °F 59.7 °F 61% 30.12 in 10.0 mi WNW 10.4 mph - N/A   Scattered Clouds
2:55 PM 75.2 °F 59.7 °F 58% 30.11 in 10.0 mi WNW 10.4 mph - N/A   Scattered Clouds
2:56 PM 75.2 °F 59.9 °F 59% 30.11 in 10.0 mi WNW 10.4 mph - N/A   Scattered Clouds
3:15 PM 76.3 °F 61.0 °F 59% 30.11 in 10.0 mi West 10.4 mph 16.1 mph N/A   Mostly Cloudy
3:19 PM 75.7 °F 59.9 °F 58% 30.11 in 10.0 mi West 11.5 mph 16.1 mph N/A   Mostly Cloudy
3:38 PM 74.8 °F 60.4 °F 61% 30.10 in 10.0 mi West 10.4 mph 19.6 mph N/A   Mostly Cloudy
3:55 PM 76.1 °F 60.6 °F 59% 30.10 in 10.0 mi West 13.8 mph 21.9 mph N/A   Mostly Cloudy
4:15 PM 75.6 °F 61.2 °F 61% 30.10 in 10.0 mi WNW 10.4 mph 19.6 mph N/A   Scattered Clouds
4:16 PM 75.6 °F 61.2 °F 61% 30.10 in 10.0 mi WNW 12.7 mph 19.6 mph N/A   Scattered Clouds
4:35 PM 74.7 °F 60.3 °F 61% 30.09 in 10.0 mi West 15.0 mph 18.4 mph N/A   Clear
4:36 PM 74.5 °F 59.9 °F 60% 30.09 in 10.0 mi West 12.7 mph 18.4 mph N/A   Clear
4:58 PM 74.1 °F 58.8 °F 59% 30.09 in 10.0 mi WNW 11.5 mph 19.6 mph N/A   Scattered Clouds
5:16 PM 74.5 °F 59.4 °F 59% 30.09 in 10.0 mi WNW 12.7 mph 19.6 mph N/A   Clear
5:36 PM 73.8 °F 59.0 °F 60% 30.09 in 10.0 mi WNW 15.0 mph - N/A   Clear
5:55 PM 72.5 °F 57.6 °F 59% 30.09 in 10.0 mi WNW 12.7 mph 19.6 mph N/A   Clear
5:56 PM 72.5 °F 57.6 °F 59% 30.09 in 10.0 mi WNW 12.7 mph 19.6 mph N/A   Clear
6:15 PM 72.3 °F 57.7 °F 60% 30.10 in 10.0 mi WNW 11.5 mph 18.4 mph N/A   Clear
6:20 PM 72.1 °F 58.5 °F 62% 30.10 in 10.0 mi WNW 10.4 mph - N/A   Clear
6:38 PM 70.9 °F 54.7 °F 56% 30.10 in 10.0 mi WNW 13.8 mph - N/A   Clear
6:55 PM 70.2 °F 55.6 °F 60% 30.09 in 10.0 mi WNW 9.2 mph - N/A   Clear
7:15 PM 68.4 °F 54.9 °F 62% 30.10 in 10.0 mi WNW 8.1 mph - N/A   Clear
7:16 PM 68.2 °F 54.9 °F 62% 30.10 in 10.0 mi NW 9.2 mph - N/A   Clear
7:35 PM 66.6 °F 55.0 °F 66% 30.10 in 10.0 mi NW 8.1 mph - N/A   Clear
7:36 PM 66.4 °F 55.2 °F 67% 30.10 in 10.0 mi NW 8.1 mph - N/A   Clear
7:58 PM 63.9 °F 54.7 °F 72% 30.11 in 10.0 mi NW 6.9 mph - N/A   Clear
8:16 PM 63.5 °F 53.8 °F 71% 30.11 in 10.0 mi NNW 6.9 mph - N/A   Clear
8:36 PM 62.4 °F 53.8 °F 73% 30.12 in 10.0 mi NW 6.9 mph - N/A   Clear
8:56 PM 61.5 °F 53.6 °F 75% 30.12 in 10.0 mi NW 6.9 mph - N/A   Clear
9:15 PM 59.9 °F 53.1 °F 78% 30.12 in 10.0 mi NW 5.8 mph - N/A   Clear
9:16 PM 59.9 °F 53.1 °F 78% 30.12 in 10.0 mi NW 5.8 mph - N/A   Clear
9:35 PM 59.4 °F 52.7 °F 79% 30.12 in 10.0 mi NW 5.8 mph - N/A   Clear
9:36 PM 59.4 °F 52.7 °F 79% 30.13 in 10.0 mi NW 5.8 mph - N/A   Clear
9:55 PM 59.0 °F 52.7 °F 80% 30.13 in 10.0 mi NW 3.5 mph - N/A   Clear
10:00 PM 59.0 °F 52.7 °F 80% 30.13 in 10.0 mi Calm Calm - N/A   Clear
10:17 PM 59.0 °F 52.7 °F 80% 30.12 in 10.0 mi NNW 4.6 mph - N/A   Clear
10:36 PM 57.9 °F 52.2 °F 81% 30.13 in 10.0 mi Calm Calm - N/A   Clear
10:56 PM 56.1 °F 52.0 °F 86% 30.12 in 10.0 mi NNW 3.5 mph - N/A   Clear
11:15 PM 57.4 °F 52.2 °F 83% 30.12 in 10.0 mi NNW 5.8 mph - N/A   Clear
11:16 PM 57.4 °F 52.2 °F 83% 30.12 in 10.0 mi NNW 5.8 mph - N/A   Clear
11:35 PM 53.6 °F 50.5 °F 89% 30.12 in 10.0 mi West 4.6 mph - N/A   Clear
11:40 PM 53.2 °F 50.9 °F 92% 30.13 in 10.0 mi West 5.8 mph - N/A   Clear
11:57 PM 52.3 °F 50.5 °F 94% 30.12 in 10.0 mi West 5.8 mph - N/A   Clear